This is the latest recevied weather packets stored in our database for station/object MEGLR. If no packets are shown the sender has not sent any weather packets the latest 1 day(s).
| Time | Temp. | Humidity | Pressure | Rain* | Wind** | Luminosity | Snow |
|---|---|---|---|---|---|---|---|
| 1778087403 | 11.11° C | 87% | 0 hPa | - | - | - | - |
| 1778083803 | 11.11° C | 88% | 0 hPa | - | - | - | - |
| 1778079003 | 11.11° C | 91% | 0 hPa | - | - | - | - |
| 1778075403 | 10.56° C | 90% | 0 hPa | - | - | - | - |
| 1778071203 | 10.56° C | 92% | 0 hPa | - | - | - | - |
| 1778068204 | 11.11° C | 88% | 0 hPa | - | - | - | - |
| 1778067019 | 11.11° C | 89% | 0 hPa | - | - | - | - |
| 1778065803 | 11.11° C | 90% | 0 hPa | - | - | - | - |
| 1778062803 | 11.11° C | 90% | 0 hPa | - | - | - | - |
| 1778062203 | 11.11° C | 89% | 0 hPa | - | - | - | - |
| 1778059804 | 11.11° C | 90% | 0 hPa | - | - | - | - |
| 1778058603 | 11.11° C | 90% | 0 hPa | - | - | - | - |
| 1778055603 | 11.67° C | 89% | 0 hPa | - | - | - | - |
| 1778053803 | 11.67° C | 89% | 0 hPa | - | - | - | - |
| 1778053203 | 11.67° C | 90% | 0 hPa | - | - | - | - |
| 1778049603 | 11.67° C | 90% | 0 hPa | - | - | - | - |
| 1778046003 | 11.67° C | 89% | 0 hPa | - | - | - | - |
| 1778043604 | 12.22° C | 90% | 0 hPa | - | - | - | - |
| 1778041203 | 11.67° C | 92% | 0 hPa | - | - | - | - |
| 1778038203 | 11.67° C | 93% | 0 hPa | - | - | - | - |
| 1778037603 | 11.67° C | 94% | 0 hPa | - | - | - | - |
| 1778037003 | 11.67° C | 95% | 0 hPa | - | - | - | - |
| 1778036404 | 11.67° C | 95% | 0 hPa | - | - | - | - |
| 1778034604 | 11.67° C | 94% | 0 hPa | - | - | - | - |
| 1778033403 | 12.22° C | 92% | 0 hPa | - | - | - | - |
* Rain since midnight (hover to see other rain measurements)
** Current wind speed in m/s (hover to see current wind gust speed)